FALCON 9 DEB (53583 NORAD) Tracking and Keplerian Element Data

This shows tracking and keplerian element data for the satellite.

Feedback or suggestion? Click here.




ElementValue
Catalog53583
NameFALCON 9 DEB
Epoch Orbit258
Epoch Day247.80501993
Epoch Year2022
RAAN72.8287
Inclination53.2155
Eccentricity0.0033952
Argument of Perigee94.7184
Mean Anonmoly265.7734
Mean Motion16.17401276
Decay Rate0.01561758
L11 53583U 22101BJ 22247.80501993 .01561758 11755-4 85483-3 0 9999
L22 53583 53.2155 72.8287 0033952 94.7184 265.7734 16.17401276 2580



Live tracking and technical data element details for FALCON 9 DEB (NORAD 53583). FALCON 9 DEB can be tracked NOW for your location showing map with azimuth and elevation plus other details from your city location.







IsCatalogInMostPopularTable: catalog: 53583, numindb: 4
Update: records affected: 1



GetName: 53583 FALCON 9 DEB

Hit Count: updated at: Thu, 08 Dec 2022 09:54:34 GMT